Regional Weather Roundup
Issued by NWS Northern Indiana

Home | Current Version | Previous Version | Text Only | Print | Product List | Glossary Off
Versions: 1 2 3 4 5 6 7 8 9 10 11 12 13 14 15 16 17 18 19 20 21 22 23 24 25 26 27 28 29 30 31 32 33 34 35 36 37 38 39 40 41 42 43 44 45 46 47 48 49 50

000
ASUS43 KIWX 221810
RWRIWX

KIWX WEATHER ROUNDUP
NATIONAL WEATHER SERVICE NORTHERN INDIANA
100 PM EST MON DEC 22 2014

NOTE: "FAIR" INDICATES FEW OR NO CLOUDS BELOW 12,000 FEET WITH NO
SIGNIFICANT WEATHER AND/OR OBSTRUCTIONS TO VISIBILITY.

* THESE STATIONS ARE NOT UNDER NWS QUALITY CONTROL. THEY ALSO MAY NOT
  REPORT WEATHER SUCH AS PRECIPITATION OR FOG.

INZ001>027-221900-
NORTHERN INDIANA

CITY           SKY/WX    TMP DP  RH WIND       PRES   REMARKS
GARY*          CLOUDY    37  30  75 SE9       29.83  FOG
VALPARAISO     CLOUDY    35  31  85 SE14      29.83F WCI  26
6HR MIN TEMP:  29; 6HR MAX TEMP:  35; 6HR PCP: TRACE;

MICHIGAN CITY* CLOUDY    36  28  75 SE7       29.84F
LAPORTE*       DRIZZLE   37  33  85 SE10      29.86F
6HR MIN TEMP:  31; 6HR MAX TEMP:  37;

KNOX*          CLOUDY    36  28  72 SE13      29.85F
6HR MIN TEMP:   9; 6HR MAX TEMP:  81;

SOUTH BEND     CLOUDY    35  29  78 SE12      29.88  HAZE    WCI  27
6HR MIN TEMP:  29; 6HR MAX TEMP:  35;

ELKHART*       CLOUDY    36  27  69 SE9       29.90F HAZE
GOSHEN         LGT RAIN  35  29  78 SE10      29.89F WCI  27
6HR MIN TEMP:  26; 6HR MAX TEMP:  35; 6HR PCP: TRACE;

MONTICELLO*    LGT RAIN  36  34  92 SE7       29.84F
6HR MIN TEMP:  30; 6HR MAX TEMP:  36;

LOGANSPORT*    DRIZZLE   36  32  87 E8        29.86F
ROCHESTER*     CLOUDY    37  34  87 SE8       29.87F HAZE
WARSAW*        CLOUDY    34  30  86 E9        29.88F HAZE    WCI  26
ANGOLA*        CLOUDY    34  27  75 SE8       29.92F WCI  27
FORT WAYNE     CLOUDY    35  30  82 E8        29.91F WCI  29
6HR MIN TEMP:  23; 6HR MAX TEMP:  35;

HUNTINGTON*    CLOUDY    35  32  88 E6        29.90F WCI  30
6HR MIN TEMP:  26; 6HR MAX TEMP:  35;

MARION*        CLOUDY    37  32  82 SE8       29.88F
6HR MIN TEMP:  22; 6HR MAX TEMP:  50;


$$
INZ028>050-221900-
CENTRAL INDIANA

CITY           SKY/WX    TMP DP  RH WIND       PRES   REMARKS
LAFAYETTE      LGT RAIN  38  36  92 E9        29.82F FOG
6HR MIN TEMP:  31; 6HR MAX TEMP:  38; 6HR PCP:  0.01;

KOKOMO*        CLOUDY    37  32  81 SE7       29.87F
6HR MIN TEMP:  28; 6HR MAX TEMP:  37;

MUNCIE*        CLOUDY    40  33  76 SE9       29.89F
6HR MIN TEMP:  32; 6HR MAX TEMP:  40;

INDIANAPOLIS   CLOUDY    39  33  79 SE12      29.84F
6HR MIN TEMP:  31; 6HR MAX TEMP:  39; 6HR PCP: TRACE;


$$
MIZ043>046-050>051-056>058-064>065-071>073-077>080-221900-
SOUTHWEST LOWER MICHIGAN

CITY           SKY/WX    TMP DP  RH WIND       PRES   REMARKS
BATTLE CREEK   CLOUDY    37  27  67 SE9       29.92F
6HR MIN TEMP:  27; 6HR MAX TEMP:  37;

BENTON HARBOR  CLOUDY    34  28  79 SE12      29.87F HAZE    WCI  25
6HR MIN TEMP:  27; 6HR MAX TEMP:  34;

COLDWATER*     CLOUDY    35  28  75 MISG      29.92F
6HR MIN TEMP:  25; 6HR MAX TEMP:  35;

HILLSDALE*     CLOUDY    36  30  78 SE12      29.93F
6HR MIN TEMP:  24; 6HR MAX TEMP:  36;

HOLLAND        CLOUDY    36  27  69 E12       29.90F
6HR MIN TEMP:  29; 6HR MAX TEMP:  36;

GRAND RAPIDS   PTSUNNY   36  27  69 SE14      29.93F
6HR MIN TEMP:  26; 6HR MAX TEMP:  36;

KALAMAZOO      CLOUDY    36  27  69 SE8       29.92F
6HR MIN TEMP:  26; 6HR MAX TEMP:  36;

STURGIS*       CLOUDY    36  28  75 SE8       29.90F
THREE RIVERS*  CLOUDY    35  28  78 SE7       29.91F WCI  29

$$
OHZ001>008-015>018-024>025-221900-
NORTHWEST OHIO

CITY           SKY/WX    TMP DP  RH WIND       PRES   REMARKS
WAUSEON*       CLOUDY    37  30  75 SE6       29.97F
DEFIANCE       CLOUDY    36  29  75 E10       29.94F HAZE
6HR MIN TEMP:  25; 6HR MAX TEMP:  36;

FINDLAY        PTSUNNY   39  30  70 E9        29.94F
6HR MIN TEMP:  24; 6HR MAX TEMP:  39;

TOLEDO EXPRESS CLOUDY    37  28  70 E8        29.97F
6HR MIN TEMP:  22; 6HR MAX TEMP:  37;

TOLEDO METCALF PTSUNNY   38  29  70 E5        29.99F
6HR MIN TEMP:  24; 6HR MAX TEMP:  38;

LIMA           CLOUDY    43  32  65 E7        29.93F
6HR MIN TEMP:  27; 6HR MAX TEMP:  43;


$$
AND FOR LAKE MICHIGAN COASTAL AND OPEN LAKE BUOY OBSERVATIONS

STATION/POSITION TEMP    WIND        PRES    VSBY  WAVE
                 AIR SEA DIR/SP/G                  HT/PER
                 (F)     (DEG/KT/KT) (MB)    (MI)  (FT/S)
CALUMET HARBOR    35     100/  7/ 11 1008.7F
SAINT JOSEPH      35      CALM  /  5 1011.5F
SAINT JOSEPH CG                      1013.4      6   0

$$
&&



USA.gov is the U.S. government's official web portal to all federal, state and local government web resources and services.